THORAD DELTA 1 DEB, 42621

Orbit data source: Space-Track

THORAD DELTA 1 DEB, 42621 is space debris in LEO originally from a launch on Fri, 15 Nov 1974 UTC launched from the Air Force Western Test Range (AFWTR). Debris objects in space refer to the collection of defunct objects orbiting the Earth. Examples of debris include non-operational satellites, rocket bodies, and fragments generated from explosions, collisions, or faulty payload assembly.

Loading next visibility...
Identifier
42621, 1974-089GN
Orbit
LEO
Country
Flag of USUS
Related business
Manufacturer
Unknown
Mission
Spacecraft
Bus & Motor
Unknown
Mass
Unknown
Launch date (UTC)
1974-11-15 (52 years ago)
Launch vehicle
Unknown
Launch site
Air Force Western Test Range (AFWTR)
Object type
Payload
Rocket body
Debris
Shape & HBR
Unknown shape, 0.1 m
Radar Cross Section
Medium (>0.1 m² and <1 m²)

Expand to show TLE details & history
Last TLE update: 3 days ago

TLE from 3 days ago
0 THORAD DELTA 1 DEB
1 42621U 74089GN  26170.94568122  .00000051  00000-0  10459-2 0  9993
2 42621 101.0234 328.3224 0373158 244.7913 272.1477 11.85427451544099
Epoch: 2026-06-19T22:41Z
TLE epoch observation values (Epoch: 2026-06-19T22:41:46.857Z)
Latitude
26.82663°
Longitude
-94.66344°
Altitude
1,749.656 km
Speed
7.006 km/s
True Right ascension
10h 15m 47s
True Declination
26° 42' 19"
Sunlit
Object was in daylight at epoch
Visualization orbit readout
Latitude
Unknown
Longitude
Unknown
Altitude
Unknown
Speed
Unknown
Apparent Right ascension
Unknown
Apparent Declination
Unknown
Sunlit
N/A
Visualization observer readout
Local Sidereal Time
21:57:43
Azimuth
Unknown
Elevation
Unknown
Doppler factor
Unknown
Orbital elements
Apogee altitude
2,047.457 km
Perigee altitude
1,441.262 km
Semi-major axis
8,122.497 km
Eccentricity
0.03732
Inclination
101.0234°
RAAN
328.3224°
Arg. of periapsis
244.7913°
True anomaly
267.87112°
Mean anomaly
272.1477°
Eccentric anomaly
270.00966°
Mean motion
2.96489 °/min
Orbital period
121.42 mins
BSTAR
0.0010459
Loading maneuver chart data...
Computing Atmospheric mass density...

Documentation

Showing up to 5 results
|